Loisir ou Compétition : Rejoignez un Club de la Fédération

Résultats

Coupe du Dauphiné Banque Populaire AURA

MEAUDRE

MASS Dames

Jury de Compétition

Délégué Technique :
DURAND POUDRET GERARD (DA)
D.T. Adjoint :
HELDENBERGH NICOLAS (DA)
Dir. Epreuve :
GAILLARD LILIAN (DA)

Caractéristiques de la Piste

Piste :
 
Distance :
2.5 km
Point Haut :
 
Point Bas :
 
Montée Tot. :
 
Montée Max. :
 
Homologation :
 

Pénalité Appliquée :
32.5000
Coefficient :
 

Catégorie :
U13
Style :
 
Clt Dos Clt/Cat Code An Nom Prénom Com Club Temps Ecart Points
Classés
1 101 1/U13 FFS2681492 2006 DUSSERRE ALICE DA CS VILLARD 11:20.9 00:00.0 32.50
2 102 2/U13 FFS2676157 2006 DONET FLORE DA SA MEAUDRAIS 11:24.6 00:03.6 40.09
3 103 3/U13 FFS2692290 2006 VASSAL LILI DA CS VILLARD 11:43.2 00:22.3 78.41
4 115 4/U13 FFS2676312 2006 COUPAT ANNETTE FZ BESSAT S HIV 11:47.6 00:26.6 87.35
5 107 5/U13 FFS2676072 2006 BREYTON BOUVIER LIV DA SN CHARTROUS 11:55.6 00:34.7 103.86
6 118 6/U13 FFS2677200 2006 HASENFRATZ AMELIE DA CO 7 LAUX GR 12:00.5 00:39.6 113.96
7 105 7/U13 FFS2675531 2006 CHAMPAGNAC FANTINE DA SA MEAUDRAIS 12:07.3 00:46.4 127.98
8 106 8/U13 FFS2686247 2007 LANGLAIS ADELIE DA CS VILLARD 12:09.3 00:48.4 132.03
9 110 9/U13 FFS2684409 2006 MORETTI LENA DA CS VILLARD 12:26.5 01:05.5 167.29
10 109 10/U13 FFS2674482 2006 PORRET LINA DA US AUTRANNAI 12:33.8 01:12.8 182.32
11 117 11/U13 FFS2677876 2006 AZAMBRE MATHILDE DA US AUTRANNAI 12:37.3 01:16.4 189.64
12 112 12/U13 FFS2681265 2006 BOEUF MAE DA SNB CHAMROUS 12:39.4 01:18.5 193.91
13 114 13/U13 FFS2673634 2006 FOURCY GIRAUD AUBAINE DA CO 7 LAUX GR 12:40.2 01:19.2 195.45
14 108 14/U13 FFS2686334 2006 PIC CALINE DA SNB CHAMROUS 12:40.3 01:19.4 195.78
15 113 15/U13 FFS2687726 2006 BRUEL MANON DA CS VILLARD 12:41.4 01:20.5 198.00
16 119 16/U13 FFS2682358 2006 BARDINET FANTINE DA SNO 12:49.9 01:29.0 215.50
17 116 17/U13 FFS2681595 2006 GATIE SELENE DA SN CHARTROUS 12:55.2 01:34.3 226.42
18 121 18/U13 FFS2674768 2006 GLEYZOLLE THAIS DA US AUTRANNAI 12:55.3 01:34.3 226.52
19 122 19/U13 FFS2686248 2007 DOSTATNI VICTORIA DA SA MEAUDRAIS 13:00.5 01:39.5 237.23
20 104 20/U13 FFS2675532 2006 VITTOZ LOUNA DA SA MEAUDRAIS 13:04.5 01:43.5 245.43
21 120 21/U13 FFS2669456 2006 FILLIARD SWANI DA CO 7 LAUX GR 13:04.9 01:43.9 246.26
22 133 22/U13 FFS2681446 2007 COPPEL JUSTINE DA GUC GRENOBLE 13:04.9 01:44.0 246.38
23 135 23/U13 FFS2697124 2006 MARGUERON RAPHAELLE DA GUC GRENOBLE 13:10.4 01:49.4 257.61
24 148 24/U13 FFS2676280 2006 EYSSAUTIER CYLIA DA SNB CHAMROUS 13:17.2 01:56.3 271.61
25 130 25/U13 FFS2677798 2006 COMBEAU ROMANE DA SNO 13:17.6 01:56.6 272.39
26 134 26/U13 FFS2686860 2007 JALLIFIER LISA DA VERCORS SKF 13:19.1 01:58.2 275.55
27 125 27/U13 FFS2686868 2006 BONZI ANTONELLA DA US AUTRANNAI 13:24.9 02:04.0 287.44
28 124 28/U13 FFS2675761 2006 PELLEGRIN MELYNE DA SNB CHAMROUS 13:27.1 02:06.2 292.02
29 136 29/U13 FFS2687696 2007 DERUELLE ALICE DA CS VILLARD 13:48.3 02:27.4 335.59
30 138 30/U13 FFS2696352 2007 DODOS MATILDA DA SN CHARTROUS 13:48.5 02:27.6 336.00
31 127 31/U13 FFS2676288 2006 COSTE HANNA LIV DA US AUTRANNAI 13:52.5 02:31.5 344.14
32 131 32/U13 FFS2682432 2007 REGNAULT MARGAUX DA CS VILLARD 13:55.8 02:34.9 351.03
33 123 33/U13 FFS2677877 2006 FAVARIN TIZIANA DA SA MEAUDRAIS 13:59.5 02:38.5 358.51
34 137 34/U13 FFS2691384 2006 GAL EULALIE DA SNB CHAMROUS 14:00.4 02:39.5 360.51
35 126 35/U13 FFS2687121 2006 ROBIN MANON DA US AUTRANNAI 14:07.3 02:46.3 374.57
36 128 36/U13 FFS2677690 2006 BOURGAULT ELINE DA US AUTRANNAI 14:08.0 02:47.1 376.11
37 132 37/U13 FFS2691872 2007 LUCAS SALOME DA CS VILLARD 14:22.0 03:01.1 404.87
38 147 38/U13 FFS2689915 2007 BOULEGUE ZOE DA SN CHARTROUS 14:29.9 03:08.9 420.99
39 142 39/U13 FFS2691584 2007 MOSNIER ERELL DA GUC GRENOBLE 14:37.2 03:16.2 436.02
40 141 40/U13 FFS2686815 2007 LABBE LULLY DA GUC GRENOBLE 14:44.7 03:23.7 451.46
41 143 41/U13 FFS2686329 2007 LICATA ROSE DA SA MEAUDRAIS 15:42.7 04:21.8 570.81
42 139 42/U13 FFS2681512 2007 COLLIARD LISE DA SA MEAUDRAIS 15:49.4 04:28.4 584.42
43 140 43/U13 FFS2700388 2006 BREYSSE ISALINE DA ADDSN ARDECH 15:52.3 04:31.4 590.55
44 146 44/U13 FFS2696467 2007 RIBOUD LISA DA US AUTRANNAI 19:30.4 08:09.4 1038.80
45 149 45/U13 FFS2696604 2007 WATREMEZ MAYA DA VERCORS SKF 21:22.1 10:01.1 1268.40
Non partants
111 FFS2682311 2007 LAMOUR LIZ THI DA CS VILLARD
129 FFS2691407 2006 MIEHE NAWEL DA SNB CHAMROUS
144 FFS2697861 2006 DUSSERT ALIX DA SM AIGUILLE
145 FFS2693055 2006 MINELLI BARON CAPUCINE DA US AUTRANNAI